Year,Month,Day,Hour,Minute,Value (Times are PST for temperature in C)
2018,06,18,00,00,22.90
2018,06,18,00,01,22.80
2018,06,18,00,02,22.80
2018,06,18,00,03,22.80
2018,06,18,00,04,22.70
2018,06,18,00,05,22.70
2018,06,18,00,06,22.70
2018,06,18,00,07,22.60
2018,06,18,00,08,22.60
2018,06,18,00,09,22.60
2018,06,18,00,10,22.60
2018,06,18,00,11,22.60
2018,06,18,00,12,22.60
2018,06,18,00,13,22.60
2018,06,18,00,14,22.60
2018,06,18,00,15,22.50
2018,06,18,00,16,22.50
2018,06,18,00,17,22.50
2018,06,18,00,18,22.50
2018,06,18,00,19,22.50
2018,06,18,00,20,22.50
2018,06,18,00,21,22.50
2018,06,18,00,22,22.40
2018,06,18,00,23,22.40
2018,06,18,00,24,22.40
2018,06,18,00,25,22.40
2018,06,18,00,26,22.40
2018,06,18,00,27,22.40
2018,06,18,00,28,22.30
2018,06,18,00,29,22.30
2018,06,18,00,30,22.30
2018,06,18,00,31,22.30
2018,06,18,00,32,22.30
2018,06,18,00,33,22.30
2018,06,18,00,34,22.30
2018,06,18,00,35,22.30
2018,06,18,00,36,22.30
2018,06,18,00,37,22.20
2018,06,18,00,38,22.20
2018,06,18,00,39,22.20
2018,06,18,00,40,22.20
2018,06,18,00,41,22.10
2018,06,18,00,42,22.10
2018,06,18,00,43,22.10
2018,06,18,00,44,22.00
2018,06,18,00,45,22.00
2018,06,18,00,46,21.90
2018,06,18,00,47,21.90
2018,06,18,00,48,21.90
2018,06,18,00,49,21.90
2018,06,18,00,50,21.90
2018,06,18,00,51,21.90
2018,06,18,00,52,21.90
2018,06,18,00,53,21.90
2018,06,18,00,54,21.80
2018,06,18,00,55,21.80
2018,06,18,00,56,21.80
2018,06,18,00,57,21.70
2018,06,18,00,58,21.70
2018,06,18,00,59,21.70
2018,06,18,01,00,21.70
2018,06,18,01,01,21.70
2018,06,18,01,02,21.70
2018,06,18,01,03,21.70
2018,06,18,01,04,21.70
2018,06,18,01,05,21.70
2018,06,18,01,06,21.70
2018,06,18,01,07,21.70
2018,06,18,01,08,21.60
2018,06,18,01,09,21.60
2018,06,18,01,10,21.60
2018,06,18,01,11,21.60
2018,06,18,01,12,21.50
2018,06,18,01,13,21.50
2018,06,18,01,14,21.50
2018,06,18,01,15,21.40
2018,06,18,01,16,21.40
2018,06,18,01,17,21.40
2018,06,18,01,18,21.40
2018,06,18,01,19,21.30
2018,06,18,01,20,21.30
2018,06,18,01,21,21.30
2018,06,18,01,22,21.20
2018,06,18,01,23,21.20
2018,06,18,01,24,21.20
2018,06,18,01,25,21.10
2018,06,18,01,26,21.10
2018,06,18,01,27,21.10
2018,06,18,01,28,21.10
2018,06,18,01,29,21.10
2018,06,18,01,30,21.00
2018,06,18,01,31,21.00
2018,06,18,01,32,21.00
2018,06,18,01,33,21.00
2018,06,18,01,34,21.00
2018,06,18,01,35,21.00
2018,06,18,01,36,20.90
2018,06,18,01,37,20.90
2018,06,18,01,38,20.90
2018,06,18,01,39,20.80
2018,06,18,01,40,20.80
2018,06,18,01,41,20.80
2018,06,18,01,42,20.70
2018,06,18,01,43,20.70
2018,06,18,01,44,20.70
2018,06,18,01,45,20.70
2018,06,18,01,46,20.70
2018,06,18,01,47,20.60
2018,06,18,01,48,20.60
2018,06,18,01,49,20.60
2018,06,18,01,50,20.50
2018,06,18,01,51,20.50
2018,06,18,01,52,20.40
2018,06,18,01,53,20.40
2018,06,18,01,54,20.40
2018,06,18,01,55,20.40
2018,06,18,01,56,20.30
2018,06,18,01,57,20.30
2018,06,18,01,58,20.20
2018,06,18,01,59,20.20
2018,06,18,02,00,20.20
2018,06,18,02,01,20.20
2018,06,18,02,02,20.10
2018,06,18,02,03,20.20
2018,06,18,02,04,20.20
2018,06,18,02,05,20.10
2018,06,18,02,06,20.10
2018,06,18,02,07,20.10
2018,06,18,02,08,20.00
2018,06,18,02,09,20.00
2018,06,18,02,10,19.90
2018,06,18,02,11,19.90
2018,06,18,02,12,19.80
2018,06,18,02,13,19.80
2018,06,18,02,14,19.80
2018,06,18,02,15,19.70
2018,06,18,02,16,19.70
2018,06,18,02,17,19.60
2018,06,18,02,18,19.60
2018,06,18,02,19,19.60
2018,06,18,02,20,19.60
2018,06,18,02,21,19.50
2018,06,18,02,22,19.50
2018,06,18,02,23,19.50
2018,06,18,02,24,19.50
2018,06,18,02,25,19.40
2018,06,18,02,26,19.40
2018,06,18,02,27,19.40
2018,06,18,02,28,19.30
2018,06,18,02,29,19.30
2018,06,18,02,30,19.30
2018,06,18,02,31,19.30
2018,06,18,02,32,19.20
2018,06,18,02,33,19.20
2018,06,18,02,34,19.20
2018,06,18,02,35,19.20
2018,06,18,02,36,19.20
2018,06,18,02,37,19.20
2018,06,18,02,38,19.10
2018,06,18,02,39,19.00
2018,06,18,02,40,18.90
2018,06,18,02,41,18.90
2018,06,18,02,42,18.80
2018,06,18,02,43,18.80
2018,06,18,02,44,18.70
2018,06,18,02,45,18.70
2018,06,18,02,46,18.60
2018,06,18,02,47,18.60
2018,06,18,02,48,18.50
2018,06,18,02,49,18.50
2018,06,18,02,50,18.40
2018,06,18,02,51,18.40
2018,06,18,02,52,18.30
2018,06,18,02,53,18.30
2018,06,18,02,54,18.30
2018,06,18,02,55,18.30
2018,06,18,02,56,18.30
2018,06,18,02,57,18.30
2018,06,18,02,58,18.30
2018,06,18,02,59,18.30
2018,06,18,03,00,18.30
2018,06,18,03,01,18.30
2018,06,18,03,02,18.20
2018,06,18,03,03,18.20
2018,06,18,03,04,18.10
2018,06,18,03,05,18.00
2018,06,18,03,06,17.90
2018,06,18,03,07,17.80
2018,06,18,03,08,17.70
2018,06,18,03,09,17.60
2018,06,18,03,10,17.50
2018,06,18,03,11,17.40
2018,06,18,03,12,17.40
2018,06,18,03,13,17.30
2018,06,18,03,14,17.30
2018,06,18,03,15,17.30
2018,06,18,03,16,17.30
2018,06,18,03,17,17.20
2018,06,18,03,18,17.20
2018,06,18,03,19,17.20
2018,06,18,03,20,17.20
2018,06,18,03,21,17.20
2018,06,18,03,22,17.10
2018,06,18,03,23,17.10
2018,06,18,03,24,17.10
2018,06,18,03,25,17.10
2018,06,18,03,26,17.00
2018,06,18,03,27,17.00
2018,06,18,03,28,17.00
2018,06,18,03,29,17.00
2018,06,18,03,30,16.90
2018,06,18,03,31,16.90
2018,06,18,03,32,16.90
2018,06,18,03,33,16.90
2018,06,18,03,34,16.90
2018,06,18,03,35,16.90
2018,06,18,03,36,16.80
2018,06,18,03,37,16.80
2018,06,18,03,38,16.80
2018,06,18,03,39,16.80
2018,06,18,03,40,16.80
2018,06,18,03,41,16.70
2018,06,18,03,42,16.70
2018,06,18,03,43,16.70
2018,06,18,03,44,16.70
2018,06,18,03,45,16.70
2018,06,18,03,46,16.60
2018,06,18,03,47,16.60
2018,06,18,03,48,16.60
2018,06,18,03,49,16.50
2018,06,18,03,50,16.50
2018,06,18,03,51,16.40
2018,06,18,03,52,16.30
2018,06,18,03,53,16.30
2018,06,18,03,54,16.30
2018,06,18,03,55,16.20
2018,06,18,03,56,16.20
2018,06,18,03,57,16.20
2018,06,18,03,58,16.20
2018,06,18,03,59,16.10
2018,06,18,04,00,16.10
2018,06,18,04,01,16.10
2018,06,18,04,02,16.00
2018,06,18,04,03,16.00
2018,06,18,04,04,16.00
2018,06,18,04,05,15.90
2018,06,18,04,06,15.90
2018,06,18,04,07,15.90
2018,06,18,04,08,15.90
2018,06,18,04,09,15.90
2018,06,18,04,10,15.90
2018,06,18,04,11,15.90
2018,06,18,04,12,15.80
2018,06,18,04,13,15.80
2018,06,18,04,14,15.80
2018,06,18,04,15,15.80
2018,06,18,04,16,15.80
2018,06,18,04,17,15.70
2018,06,18,04,18,15.70
2018,06,18,04,19,15.70
2018,06,18,04,20,15.70
2018,06,18,04,21,15.70
2018,06,18,04,22,15.70
2018,06,18,04,23,15.60
2018,06,18,04,24,15.60
2018,06,18,04,25,15.60
2018,06,18,04,26,15.60
2018,06,18,04,27,15.50
2018,06,18,04,28,15.50
2018,06,18,04,29,15.50
2018,06,18,04,30,15.50
2018,06,18,04,31,15.40
2018,06,18,04,32,15.40
2018,06,18,04,33,15.40
2018,06,18,04,34,15.40
2018,06,18,04,35,15.40
2018,06,18,04,36,15.30
2018,06,18,04,37,15.30
2018,06,18,04,38,15.30
2018,06,18,04,39,15.30
2018,06,18,04,40,15.30
2018,06,18,04,41,15.20
2018,06,18,04,42,15.20
2018,06,18,04,43,15.20
2018,06,18,04,44,15.20
2018,06,18,04,45,15.10
2018,06,18,04,46,15.10
2018,06,18,04,47,15.00
2018,06,18,04,48,15.00
2018,06,18,04,49,14.90
2018,06,18,04,50,14.90
2018,06,18,04,51,14.90
2018,06,18,04,52,14.80
2018,06,18,04,53,14.80
2018,06,18,04,54,14.70
2018,06,18,04,55,14.70
2018,06,18,04,56,14.60
2018,06,18,04,57,14.60
2018,06,18,04,58,14.60
2018,06,18,04,59,14.50
2018,06,18,05,00,14.50
2018,06,18,05,01,14.50
2018,06,18,05,02,14.40
2018,06,18,05,03,14.40
2018,06,18,05,04,14.40
2018,06,18,05,05,14.40
2018,06,18,05,06,14.30
2018,06,18,05,07,14.30
2018,06,18,05,08,14.30
2018,06,18,05,09,14.30
2018,06,18,05,10,14.20
2018,06,18,05,11,14.20
2018,06,18,05,12,14.20
2018,06,18,05,13,14.10
2018,06,18,05,14,14.10
2018,06,18,05,15,14.10
2018,06,18,05,16,14.00
2018,06,18,05,17,14.00
2018,06,18,05,18,13.90
2018,06,18,05,19,13.90
2018,06,18,05,20,13.80
2018,06,18,05,21,13.80
2018,06,18,05,22,13.70
2018,06,18,05,23,13.70
2018,06,18,05,24,13.60
2018,06,18,05,25,13.60
2018,06,18,05,26,13.50
2018,06,18,05,27,13.50
2018,06,18,05,28,13.40
2018,06,18,05,29,13.40
2018,06,18,05,30,13.40
2018,06,18,05,31,13.30
2018,06,18,05,32,13.30
2018,06,18,05,33,13.30
2018,06,18,05,34,13.30
2018,06,18,05,35,13.20
2018,06,18,05,36,13.20
2018,06,18,05,37,13.20
2018,06,18,05,38,13.20
2018,06,18,05,39,13.10
2018,06,18,05,40,13.10
2018,06,18,05,41,13.10
2018,06,18,05,42,13.10
2018,06,18,05,43,13.10
2018,06,18,05,44,13.10
2018,06,18,05,45,13.00
2018,06,18,05,46,13.00
2018,06,18,05,47,13.00
2018,06,18,05,48,12.90
2018,06,18,05,49,12.90
2018,06,18,05,50,12.90
2018,06,18,05,51,12.90
2018,06,18,05,52,12.90
2018,06,18,05,53,12.90
2018,06,18,05,54,12.90
2018,06,18,05,55,12.80
2018,06,18,05,56,12.80
2018,06,18,05,57,12.80
2018,06,18,05,58,12.80
2018,06,18,05,59,12.80
2018,06,18,06,00,12.80
2018,06,18,06,01,12.70
2018,06,18,06,02,12.70
2018,06,18,06,03,12.70
2018,06,18,06,04,12.70
2018,06,18,06,05,12.70
2018,06,18,06,06,12.70
2018,06,18,06,07,12.70
2018,06,18,06,08,12.70
2018,06,18,06,09,12.70
2018,06,18,06,10,12.70
2018,06,18,06,11,12.70
2018,06,18,06,12,12.70
2018,06,18,06,13,12.70
2018,06,18,06,14,12.70
2018,06,18,06,15,12.80
2018,06,18,06,16,12.80
2018,06,18,06,17,12.80
2018,06,18,06,18,12.80
2018,06,18,06,19,12.80
2018,06,18,06,20,12.80
2018,06,18,06,21,12.80
2018,06,18,06,22,12.80
2018,06,18,06,23,12.90
2018,06,18,06,24,12.90
2018,06,18,06,25,12.90
2018,06,18,06,26,12.90
2018,06,18,06,27,13.00
2018,06,18,06,28,13.00
2018,06,18,06,29,13.00
2018,06,18,06,30,13.10
2018,06,18,06,31,13.10
2018,06,18,06,32,13.10
2018,06,18,06,33,13.10
2018,06,18,06,34,13.20
2018,06,18,06,35,13.20
2018,06,18,06,36,13.20
2018,06,18,06,37,13.20
2018,06,18,06,38,13.30
2018,06,18,06,39,13.30
2018,06,18,06,40,13.30
2018,06,18,06,41,13.30
2018,06,18,06,42,13.40
2018,06,18,06,43,13.40
2018,06,18,06,44,13.40
2018,06,18,06,45,13.40
2018,06,18,06,46,13.40
2018,06,18,06,47,13.40
2018,06,18,06,48,13.40
2018,06,18,06,49,13.40
2018,06,18,06,50,13.40
2018,06,18,06,51,13.40
2018,06,18,06,52,13.40
2018,06,18,06,53,13.50
2018,06,18,06,54,13.50
2018,06,18,06,55,13.50
2018,06,18,06,56,13.50
2018,06,18,06,57,13.60
2018,06,18,06,58,13.60
2018,06,18,06,59,13.70
2018,06,18,07,00,13.70
2018,06,18,07,01,13.80
2018,06,18,07,02,13.90
2018,06,18,07,03,14.00
2018,06,18,07,04,14.10
2018,06,18,07,05,14.20
2018,06,18,07,06,14.30
2018,06,18,07,07,14.40
2018,06,18,07,08,14.40
2018,06,18,07,09,14.50
2018,06,18,07,10,14.60
2018,06,18,07,11,14.60
2018,06,18,07,12,14.70
2018,06,18,07,13,14.80
2018,06,18,07,14,14.80
2018,06,18,07,15,14.90
2018,06,18,07,16,15.00
2018,06,18,07,17,15.00
2018,06,18,07,18,15.10
2018,06,18,07,19,15.20
2018,06,18,07,20,15.30
2018,06,18,07,21,15.40
2018,06,18,07,22,15.40
2018,06,18,07,23,15.50
2018,06,18,07,24,15.60
2018,06,18,07,25,15.70
2018,06,18,07,26,15.80
2018,06,18,07,27,15.90
2018,06,18,07,28,16.10
2018,06,18,07,29,16.20
2018,06,18,07,30,16.30
2018,06,18,07,31,16.40
2018,06,18,07,32,16.50
2018,06,18,07,33,16.60
2018,06,18,07,34,16.70
2018,06,18,07,35,16.80
2018,06,18,07,36,16.90
2018,06,18,07,37,17.00
2018,06,18,07,38,17.20
2018,06,18,07,39,17.30
2018,06,18,07,40,17.40
2018,06,18,07,41,17.50
2018,06,18,07,42,17.70
2018,06,18,07,43,17.80
2018,06,18,07,44,17.80
2018,06,18,07,45,17.90
2018,06,18,07,46,18.00
2018,06,18,07,47,18.10
2018,06,18,07,48,18.10
2018,06,18,07,49,18.20
2018,06,18,07,50,18.20
2018,06,18,07,51,18.30
2018,06,18,07,52,18.30
2018,06,18,07,53,18.40
2018,06,18,07,54,18.40
2018,06,18,07,55,18.50
2018,06,18,07,56,18.60
2018,06,18,07,57,18.60
2018,06,18,07,58,18.70
2018,06,18,07,59,18.70
2018,06,18,08,00,18.80
2018,06,18,08,01,18.80
2018,06,18,08,02,18.80
2018,06,18,08,03,18.80
2018,06,18,08,04,18.90
2018,06,18,08,05,19.00
2018,06,18,08,06,19.00
2018,06,18,08,07,19.10
2018,06,18,08,08,19.10
2018,06,18,08,09,19.20
2018,06,18,08,10,19.20
2018,06,18,08,11,19.30
2018,06,18,08,12,19.30
2018,06,18,08,13,19.40
2018,06,18,08,14,19.40
2018,06,18,08,15,19.40
2018,06,18,08,16,19.40
2018,06,18,08,17,19.50
2018,06,18,08,18,19.50
2018,06,18,08,19,19.50
2018,06,18,08,20,19.60
2018,06,18,08,21,19.60
2018,06,18,08,22,19.70
2018,06,18,08,23,19.70
2018,06,18,08,24,19.70
2018,06,18,08,25,19.80
2018,06,18,08,26,19.80
2018,06,18,08,27,19.90
2018,06,18,08,28,20.00
2018,06,18,08,29,20.00
2018,06,18,08,30,20.10
2018,06,18,08,31,20.10
2018,06,18,08,32,20.10
2018,06,18,08,33,20.20
2018,06,18,08,34,20.20
2018,06,18,08,35,20.20
2018,06,18,08,36,20.20
2018,06,18,08,37,20.20
2018,06,18,08,38,20.20
2018,06,18,08,39,20.20
2018,06,18,08,40,20.20
2018,06,18,08,41,20.20
2018,06,18,08,42,20.20
2018,06,18,08,43,20.20
2018,06,18,08,44,20.30
2018,06,18,08,45,20.30
2018,06,18,08,46,20.30
2018,06,18,08,47,20.30
2018,06,18,08,48,20.40
2018,06,18,08,49,20.40
2018,06,18,08,50,20.50
2018,06,18,08,51,20.60
2018,06,18,08,52,20.60
2018,06,18,08,53,20.60
2018,06,18,08,54,20.70
2018,06,18,08,55,20.70
2018,06,18,08,56,20.70
2018,06,18,08,57,20.80
2018,06,18,08,58,20.80
2018,06,18,08,59,20.80
2018,06,18,09,00,20.90
2018,06,18,09,01,20.90
2018,06,18,09,02,20.90
2018,06,18,09,03,21.00
2018,06,18,09,04,21.00
2018,06,18,09,05,21.10
2018,06,18,09,06,21.10
2018,06,18,09,07,21.20
2018,06,18,09,08,21.30
2018,06,18,09,09,21.30
2018,06,18,09,10,21.40
2018,06,18,09,11,21.50
2018,06,18,09,12,21.50
2018,06,18,09,13,21.60
2018,06,18,09,14,21.60
2018,06,18,09,15,21.70
2018,06,18,09,16,21.70
2018,06,18,09,17,21.80
2018,06,18,09,18,21.80
2018,06,18,09,19,21.80
2018,06,18,09,20,21.90
2018,06,18,09,21,22.00
2018,06,18,09,22,22.00
2018,06,18,09,23,22.10
2018,06,18,09,24,22.10
2018,06,18,09,25,22.20
2018,06,18,09,26,22.30
2018,06,18,09,27,22.30
2018,06,18,09,28,22.40
2018,06,18,09,29,22.40
2018,06,18,09,30,22.50
2018,06,18,09,31,22.60
2018,06,18,09,32,22.60
2018,06,18,09,33,22.70
2018,06,18,09,34,22.70
2018,06,18,09,35,22.80
2018,06,18,09,36,22.80
2018,06,18,09,37,22.90
2018,06,18,09,38,23.00
2018,06,18,09,39,23.00
2018,06,18,09,40,23.10
2018,06,18,09,41,23.10
2018,06,18,09,42,23.20
2018,06,18,09,43,23.20
2018,06,18,09,44,23.30
2018,06,18,09,45,23.30
2018,06,18,09,46,23.40
2018,06,18,09,47,23.40
2018,06,18,09,48,23.40
2018,06,18,09,49,23.50
2018,06,18,09,50,23.60
2018,06,18,09,51,23.60
2018,06,18,09,52,23.70
2018,06,18,09,53,23.80
2018,06,18,09,54,23.80
2018,06,18,09,55,23.90
2018,06,18,09,56,24.00
2018,06,18,09,57,24.10
2018,06,18,09,58,24.20
2018,06,18,09,59,24.20
2018,06,18,10,00,24.30
2018,06,18,10,01,24.30
2018,06,18,10,02,24.40
2018,06,18,10,03,24.40
2018,06,18,10,04,24.40
2018,06,18,10,05,24.50
2018,06,18,10,06,24.60
2018,06,18,10,07,24.70
2018,06,18,10,08,24.80
2018,06,18,10,09,24.90
2018,06,18,10,10,25.00
2018,06,18,10,11,25.10
2018,06,18,10,12,25.10
2018,06,18,10,13,25.10
2018,06,18,10,14,25.20
2018,06,18,10,15,25.20
2018,06,18,10,16,25.30
2018,06,18,10,17,25.40
2018,06,18,10,18,25.40
2018,06,18,10,19,25.50
2018,06,18,10,20,25.60
2018,06,18,10,21,25.60
2018,06,18,10,22,25.50
2018,06,18,10,23,25.40
2018,06,18,10,24,25.40
2018,06,18,10,25,25.40
2018,06,18,10,26,25.40
2018,06,18,10,27,25.40
2018,06,18,10,28,25.50
2018,06,18,10,29,25.50
2018,06,18,10,30,25.60
2018,06,18,10,31,25.60
2018,06,18,10,32,25.70
2018,06,18,10,33,25.70
2018,06,18,10,34,25.80
2018,06,18,10,35,26.00
2018,06,18,10,36,26.10
2018,06,18,10,37,26.20
2018,06,18,10,38,26.30
2018,06,18,10,39,26.40
2018,06,18,10,40,26.50
2018,06,18,10,41,26.50
2018,06,18,10,42,26.60
2018,06,18,10,43,26.60
2018,06,18,10,44,26.60
2018,06,18,10,45,26.70
2018,06,18,10,46,26.70
2018,06,18,10,47,26.80
2018,06,18,10,48,26.90
2018,06,18,10,49,26.90
2018,06,18,10,50,26.90
2018,06,18,10,51,26.90
2018,06,18,10,52,26.90
2018,06,18,10,53,26.80
2018,06,18,10,54,26.70
2018,06,18,10,55,26.70
2018,06,18,10,56,26.70
2018,06,18,10,57,26.70
2018,06,18,10,58,26.70
2018,06,18,10,59,26.70
2018,06,18,11,00,26.70
2018,06,18,11,01,26.70
2018,06,18,11,02,26.70
2018,06,18,11,03,26.70
2018,06,18,11,04,26.70
2018,06,18,11,05,26.80
2018,06,18,11,06,26.80
2018,06,18,11,07,26.90
2018,06,18,11,08,27.00
2018,06,18,11,09,27.10
2018,06,18,11,10,27.10
2018,06,18,11,11,27.20
2018,06,18,11,12,27.30
2018,06,18,11,13,27.30
2018,06,18,11,14,27.30
2018,06,18,11,15,27.30
2018,06,18,11,16,27.40
2018,06,18,11,17,27.40
2018,06,18,11,18,27.40
2018,06,18,11,19,27.40
2018,06,18,11,20,27.40
2018,06,18,11,21,27.30
2018,06,18,11,22,27.30
2018,06,18,11,23,27.30
2018,06,18,11,24,27.30
2018,06,18,11,25,27.30
2018,06,18,11,26,27.30
2018,06,18,11,27,27.30
2018,06,18,11,28,27.30
2018,06,18,11,29,27.30
2018,06,18,11,30,27.30
2018,06,18,11,31,27.40
2018,06,18,11,32,27.40
2018,06,18,11,33,27.40
2018,06,18,11,34,27.40
2018,06,18,11,35,27.30
2018,06,18,11,36,27.30
2018,06,18,11,37,27.20
2018,06,18,11,38,27.10
2018,06,18,11,39,27.00
2018,06,18,11,40,26.90
2018,06,18,11,41,26.80
2018,06,18,11,42,26.70
2018,06,18,11,43,26.60
2018,06,18,11,44,26.60
2018,06,18,11,45,26.60
2018,06,18,11,46,26.60
2018,06,18,11,47,26.60
2018,06,18,11,48,26.60
2018,06,18,11,49,26.70
2018,06,18,11,50,26.70
2018,06,18,11,51,26.70
2018,06,18,11,52,26.60
2018,06,18,11,53,26.60
2018,06,18,11,54,26.60
2018,06,18,11,55,26.60
2018,06,18,11,56,26.60
2018,06,18,11,57,26.60
2018,06,18,11,58,26.60
2018,06,18,11,59,26.50
2018,06,18,12,00,26.60
2018,06,18,12,01,26.60
2018,06,18,12,02,26.60
2018,06,18,12,03,26.60
2018,06,18,12,04,26.60
2018,06,18,12,05,26.70
2018,06,18,12,06,26.70
2018,06,18,12,07,26.70
2018,06,18,12,08,26.70
2018,06,18,12,09,26.70
2018,06,18,12,10,26.70
2018,06,18,12,11,26.70
2018,06,18,12,12,26.70
2018,06,18,12,13,26.80
2018,06,18,12,14,27.00
2018,06,18,12,15,27.10
2018,06,18,12,16,27.20
2018,06,18,12,17,27.40
2018,06,18,12,18,27.50
2018,06,18,12,19,27.60
2018,06,18,12,20,27.70
2018,06,18,12,21,27.80
2018,06,18,12,22,27.80
2018,06,18,12,23,27.80
2018,06,18,12,24,27.80
2018,06,18,12,25,27.80
2018,06,18,12,26,27.80
2018,06,18,12,27,27.80
2018,06,18,12,28,27.80
2018,06,18,12,29,27.80
2018,06,18,12,30,27.70
2018,06,18,12,31,27.70
2018,06,18,12,32,27.70
2018,06,18,12,33,27.70
2018,06,18,12,34,27.70
2018,06,18,12,35,27.70
2018,06,18,12,36,27.70
2018,06,18,12,37,27.70
2018,06,18,12,38,27.80
2018,06,18,12,39,27.80
2018,06,18,12,40,27.80
2018,06,18,12,41,27.80
2018,06,18,12,42,27.90
2018,06,18,12,43,27.90
2018,06,18,12,44,28.00
2018,06,18,12,45,28.10
2018,06,18,12,46,28.10
2018,06,18,12,47,28.10
2018,06,18,12,48,28.10
2018,06,18,12,49,28.20
2018,06,18,12,50,28.20
2018,06,18,12,51,28.20
2018,06,18,12,52,28.30
2018,06,18,12,53,28.30
2018,06,18,12,54,28.40
2018,06,18,12,55,28.50
2018,06,18,12,56,28.50
2018,06,18,12,57,28.60
2018,06,18,12,58,28.60
2018,06,18,12,59,28.70
2018,06,18,13,00,28.70
2018,06,18,13,01,28.80
2018,06,18,13,02,28.90
2018,06,18,13,03,29.00
2018,06,18,13,04,29.10
2018,06,18,13,05,29.10
2018,06,18,13,06,29.10
2018,06,18,13,07,29.10
2018,06,18,13,08,29.10
2018,06,18,13,09,29.20
2018,06,18,13,10,29.20
2018,06,18,13,11,29.30
2018,06,18,13,12,29.40
2018,06,18,13,13,29.40
2018,06,18,13,14,29.50
2018,06,18,13,15,29.50
2018,06,18,13,16,29.60
2018,06,18,13,17,29.70
2018,06,18,13,18,29.70
2018,06,18,13,19,29.80
2018,06,18,13,20,29.80
2018,06,18,13,21,29.80
2018,06,18,13,22,29.70
2018,06,18,13,23,29.70
2018,06,18,13,24,29.70
2018,06,18,13,25,29.70
2018,06,18,13,26,29.70
2018,06,18,13,27,29.70
2018,06,18,13,28,29.80
2018,06,18,13,29,29.90
2018,06,18,13,30,30.00
2018,06,18,13,31,30.10
2018,06,18,13,32,30.20
2018,06,18,13,33,30.30
2018,06,18,13,34,30.30
2018,06,18,13,35,30.40
2018,06,18,13,36,30.30
2018,06,18,13,37,30.40
2018,06,18,13,38,30.40
2018,06,18,13,39,30.50
2018,06,18,13,40,30.60
2018,06,18,13,41,30.60
2018,06,18,13,42,30.70
2018,06,18,13,43,30.70
2018,06,18,13,44,30.70
2018,06,18,13,45,30.60
2018,06,18,13,46,30.50
2018,06,18,13,47,30.40
2018,06,18,13,48,30.50
2018,06,18,13,49,30.50
2018,06,18,13,50,30.60
2018,06,18,13,51,30.60
2018,06,18,13,52,30.60
2018,06,18,13,53,30.60
2018,06,18,13,54,30.70
2018,06,18,13,55,30.70
2018,06,18,13,56,30.70
2018,06,18,13,57,30.70
2018,06,18,13,58,30.70
2018,06,18,13,59,30.70
2018,06,18,14,00,30.70
2018,06,18,14,01,30.80
2018,06,18,14,02,30.80
2018,06,18,14,03,30.80
2018,06,18,14,04,30.80
2018,06,18,14,05,30.90
2018,06,18,14,06,30.90
2018,06,18,14,07,31.00
2018,06,18,14,08,31.00
2018,06,18,14,09,31.10
2018,06,18,14,10,31.20
2018,06,18,14,11,31.30
2018,06,18,14,12,31.30
2018,06,18,14,13,31.30
2018,06,18,14,14,31.40
2018,06,18,14,15,31.40
2018,06,18,14,16,31.50
2018,06,18,14,17,31.60
2018,06,18,14,18,31.70
2018,06,18,14,19,31.70
2018,06,18,14,20,31.80
2018,06,18,14,21,31.80
2018,06,18,14,22,31.80
2018,06,18,14,23,31.90
2018,06,18,14,24,31.90
2018,06,18,14,25,32.00
2018,06,18,14,26,32.10
2018,06,18,14,27,32.10
2018,06,18,14,28,32.20
2018,06,18,14,29,32.10
2018,06,18,14,30,32.10
2018,06,18,14,31,32.10
2018,06,18,14,32,32.20
2018,06,18,14,33,32.20
2018,06,18,14,34,32.20
2018,06,18,14,35,32.30
2018,06,18,14,36,32.30
2018,06,18,14,37,32.40
2018,06,18,14,38,32.40
2018,06,18,14,39,32.50
2018,06,18,14,40,32.50
2018,06,18,14,41,32.40
2018,06,18,14,42,32.30
2018,06,18,14,43,32.20
2018,06,18,14,44,32.20
2018,06,18,14,45,32.20
2018,06,18,14,46,32.20
2018,06,18,14,47,32.20
2018,06,18,14,48,32.20
2018,06,18,14,49,32.30
2018,06,18,14,50,32.30
2018,06,18,14,51,32.30
2018,06,18,14,52,32.30
2018,06,18,14,53,32.30
2018,06,18,14,54,32.30
2018,06,18,14,55,32.40
2018,06,18,14,56,32.30
2018,06,18,14,57,32.30
2018,06,18,14,58,32.30
2018,06,18,14,59,32.30
2018,06,18,15,00,32.30
2018,06,18,15,01,32.30
2018,06,18,15,02,32.30
2018,06,18,15,03,32.30
2018,06,18,15,04,32.30
2018,06,18,15,05,32.30
2018,06,18,15,06,32.30
2018,06,18,15,07,32.30
2018,06,18,15,08,32.20
2018,06,18,15,09,32.30
2018,06,18,15,10,32.30
2018,06,18,15,11,32.30
2018,06,18,15,12,32.30
2018,06,18,15,13,32.30
2018,06,18,15,14,32.30
2018,06,18,15,15,32.40
2018,06,18,15,16,32.40
2018,06,18,15,17,32.40
2018,06,18,15,18,32.40
2018,06,18,15,19,32.40
2018,06,18,15,20,32.40
2018,06,18,15,21,32.40
2018,06,18,15,22,32.40
2018,06,18,15,23,32.40
2018,06,18,15,24,32.50
2018,06,18,15,25,32.50
2018,06,18,15,26,32.60
2018,06,18,15,27,32.60
2018,06,18,15,28,32.50
2018,06,18,15,29,32.40
2018,06,18,15,30,32.40
2018,06,18,15,31,32.40
2018,06,18,15,32,32.40
2018,06,18,15,33,32.40
2018,06,18,15,34,32.50
2018,06,18,15,35,32.50
2018,06,18,15,36,32.60
2018,06,18,15,37,32.60
2018,06,18,15,38,32.70
2018,06,18,15,39,32.70
2018,06,18,15,40,32.70
2018,06,18,15,41,32.80
2018,06,18,15,42,32.70
2018,06,18,15,43,32.70
2018,06,18,15,44,32.80
2018,06,18,15,45,32.80
2018,06,18,15,46,32.90
2018,06,18,15,47,33.00
2018,06,18,15,48,33.10
2018,06,18,15,49,33.20
2018,06,18,15,50,33.10
2018,06,18,15,51,33.10
2018,06,18,15,52,33.10
2018,06,18,15,53,33.10
2018,06,18,15,54,33.10
2018,06,18,15,55,33.10
2018,06,18,15,56,33.10
2018,06,18,15,57,33.10
2018,06,18,15,58,33.10
2018,06,18,15,59,33.10
2018,06,18,16,00,33.20
2018,06,18,16,01,33.20
2018,06,18,16,02,33.10
2018,06,18,16,03,33.10
2018,06,18,16,04,33.10
2018,06,18,16,05,33.10
2018,06,18,16,06,33.20
2018,06,18,16,07,33.20
2018,06,18,16,08,33.30
2018,06,18,16,09,33.30
2018,06,18,16,10,33.30
2018,06,18,16,11,33.30
2018,06,18,16,12,33.30
2018,06,18,16,13,33.40
2018,06,18,16,14,33.40
2018,06,18,16,15,33.50
2018,06,18,16,16,33.60
2018,06,18,16,17,33.60
2018,06,18,16,18,33.70
2018,06,18,16,19,33.70
2018,06,18,16,20,33.70
2018,06,18,16,21,33.80
2018,06,18,16,22,33.80
2018,06,18,16,23,33.80
2018,06,18,16,24,33.90
2018,06,18,16,25,34.00
2018,06,18,16,26,34.00
2018,06,18,16,27,34.10
2018,06,18,16,28,34.10
2018,06,18,16,29,34.10
2018,06,18,16,30,34.20
2018,06,18,16,31,34.20
2018,06,18,16,32,34.30
2018,06,18,16,33,34.30
2018,06,18,16,34,34.40
2018,06,18,16,35,34.50
2018,06,18,16,36,34.50
2018,06,18,16,37,34.60
2018,06,18,16,38,34.70
2018,06,18,16,39,34.80
2018,06,18,16,40,34.80
2018,06,18,16,41,34.80
2018,06,18,16,42,34.70
2018,06,18,16,43,34.70
2018,06,18,16,44,34.60
2018,06,18,16,45,34.60
2018,06,18,16,46,34.50
2018,06,18,16,47,34.50
2018,06,18,16,48,34.30
2018,06,18,16,49,34.30
2018,06,18,16,50,34.20
2018,06,18,16,51,34.30
2018,06,18,16,52,34.30
2018,06,18,16,53,34.30
2018,06,18,16,54,34.30
2018,06,18,16,55,34.20
2018,06,18,16,56,34.10
2018,06,18,16,57,34.00
2018,06,18,16,58,34.00
2018,06,18,16,59,33.90
2018,06,18,17,00,34.00
2018,06,18,17,01,34.10
2018,06,18,17,02,34.10
2018,06,18,17,03,34.30
2018,06,18,17,04,34.40
2018,06,18,17,05,34.50
2018,06,18,17,06,34.50
2018,06,18,17,07,34.50
2018,06,18,17,08,34.50
2018,06,18,17,09,34.50
2018,06,18,17,10,34.40
2018,06,18,17,11,34.40
2018,06,18,17,12,34.40
2018,06,18,17,13,34.30
2018,06,18,17,14,34.40
2018,06,18,17,15,34.40
2018,06,18,17,16,34.50
2018,06,18,17,17,34.50
2018,06,18,17,18,34.60
2018,06,18,17,19,34.60